Tracking 34171 objects as of 21-May-2026
HD Live streaming from Space Station
objects crossing your sky now

KUIPER-00434

Track KUIPER-00434 now!
10-day predictions
KUIPER-00434 is classified as:


NORAD ID: 68938
Int'l Code: 2026-098V
Perigee: 463.7 km
Apogee: 474.7 km
Inclination: 51.9 °
Period: 93.8 minutes
Semi major axis: 6840 km
RCS: Unknown
Launch date: April 30, 2026
Source: United States (US)
Launch site: AIR FORCE EASTERN TEST RANGE (AFETR)
Your satellite tracking list
Your tracking list is empty




NASA's NSSDC Master Catalog

Two Line Element Set (TLE):
1 68938U 26098V   26140.88884731  .00010258  00000-0  31182-3 0  9993
2 68938  51.8731 199.2956 0008068  43.1365 317.0251 15.34611135  3154
Source of the keplerian elements: AFSPC